Temperature
18 18 18 18 17 17 17 17 16 16 16 16 16 15 15 15 15 15 15 15 15 14 14 14 14 14 14 14 14 14 14 14 14 14 14 14 14 14 14 14 14 14 14
18 18 17 17 17 17 17 17 16 16 16 16 16 15 15 15 15 14 14 14 14 14 14 14 14 14 14 14 14 14 14 14 14 14 14 13 14 14 13 13 13 13 13
17 17 17 17 17 17 17 16 16 16 16 16 15 15 15 15 14 14 14 14 14 14 14 14 14 14 14 14 13 13 13 13 13 13 13 13 13 13 13 13 13 13 13
17 17 17 17 17 16 16 16 16 16 16 15 15 15 15 15 14 14 14 14 14 14 14 14 13 13 13 13 13 13 13 13 13 13 13 13 13 12 12 13 13 13 13
17 17 17 17 16 16 16 16 16 16 15 15 15 15 15 14 14 14 14 14 14 14 13 13 13 13 13 13 13 13 13 13 13 13 12 12 12 12 12 12 12 12 12
17 17 16 16 16 16 16 16 16 15 15 15 15 15 14 14 14 14 14 13 13 13 13 13 13 13 13 13 12 12 12 12 12 12 12 12 12 12 12 12 12 12 12
16 16 16 16 16 16 16 15 15 15 15 15 15 14 14 14 14 14 13 13 13 13 13 13 13 13 12 12 12 12 12 12 12 12 12 12 12 12 12 11 11 11 11
16 16 16 16 16 16 15 15 15 15 14 14 14 14 14 14 13 13 13 13 13 13 13 12 12 12 12 12 12 12 12 11 11 11 11 11 11 11 11 11 11 11 11
16 16 16 16 15 15 15 15 15 15 14 14 14 14 14 13 13 13 13 13 13 12 12 12 12 12 12 12 11 11 11 11 11 11 11 11 11 11 11 11 11 10 10
16 16 16 15 15 15 15 15 14 14 14 14 14 13 13 13 13 12 12 12 12 12 12 12 12 11 11 11 11 11 11 11 11 11 11 10 10 10 10 10 10 10 10
16 16 16 15 15 15 15 14 14 14 14 13 13 13 13 13 12 12 12 12 12 11 11 11 11 11 11 11 11 11 10 10 10 10 10 10 10 10 10 10 10 10 10
16 15 15 15 15 14 14 14 14 13 13 13 13 13 12 12 12 12 12 11 11 11 11 11 11 11 11 11 10 10 10 10 10 10 10 10 10 10 9 9 9 9 9
15 15 15 14 14 14 14 13 13 13 13 13 12 12 12 12 12 11 11 11 11 10 10 10 10 10 10 10 10 10 10 10 9 9 9 9 9 9 9 9 9 9 9
14 14 14 14 14 13 13 13 13 13 12 12 12 12 12 12 11 11 11 10 10 10 10 10 10 9 9 9 9 9 9 9 9 9 9 9 9 9 9 9 9 9 9
13 13 13 13 13 13 13 12 12 12 12 12 12 12 11 11 11 11 10 10 10 10 10 9 9 9 9 9 9 9 9 9 9 8 8 8 8 8 8 8 8 8 8
13 13 13 13 13 12 12 12 12 12 11 11 11 11 11 11 10 10 10 10 10 9 9 9 9 9 9 8 8 8 8 8 8 8 8 8 8 8 8 8 8 8 8
12 12 12 12 12 12 12 12 12 11 11 11 11 11 11 10 10 10 10 9 9 9 9 9 8 8 8 8 8 8 8 8 8 8 8 8 7 7 8 8 8 7 7
12 12 12 12 12 11 11 11 11 11 11 11 11 10 10 10 10 9 9 9 9 9 9 8 8 8 8 8 8 8 8 8 8 7 7 7 7 7 7 7 7 7 7
12 12 12 12 11 11 11 11 11 10 10 10 10 10 10 10 9 9 9 9 9 8 8 8 8 8 8 8 7 7 7 7 7 7 7 7 7 7 7 7 7 7 7
12 11 11 11 11 11 11 10 10 10 10 10 10 10 10 9 9 9 9 8 8 8 8 8 7 7 7 7 7 7 7 7 7 7 7 7 7 7 6 6 6 6 6
11 11 11 11 11 10 10 10 10 10 10 10 10 10 9 9 9 9 8 8 8 7 7 7 7 7 7 7 7 6 6 6 6 6 6 6 6 6 6 6 6 6 6
11 11 11 10 10 10 10 10 10 10 9 9 9 9 9 9 8 8 8 7 7 7 7 7 6 6 6 6 6 6 6 6 6 6 6 6 6 6 6 6 5 5 5
10 10 10 10 10 10 10 10 9 9 9 9 9 9 8 8 8 8 7 7 7 6 6 6 6 6 6 6 6 6 6 6 6 6 6 6 6 5 5 5 5 5 5
10 10 10 9 9 9 9 9 9 9 9 8 8 8 8 8 7 7 7 7 6 6 6 6 6 6 6 6 6 6 5 5 5 5 5 5 5 5 5 5 5 5 4
9 9 9 9 9 9 9 9 9 8 8 8 8 8 7 7 7 7 6 6 6 6 6 6 5 5 5 5 5 5 5 5 5 5 5 5 5 5 5 4 4 4 4
9 9 9 9 8 8 8 8 8 8 8 8 7 7 7 7 6 6 6 6 6 5 5 5 5 5 5 5 5 5 5 5 5 5 5 4 4 4 4 4 4 4 4
Wind_Speed
6 7 7 7 7 6 7 7 7 6 5 4 4 3 2 1 2 3 5 6 6 7 6 4 4 4 4 3 3 3 4 3 3 3 3 4 4 4 3 3 3 3 3
5 6 6 6 6 7 7 7 7 7 5 4 4 3 3 2 1 2 4 6 7 6 6 5 3 3 3 4 4 3 2 2 3 2 2 3 4 4 3 3 3 3 2
10 8 7 6 6 6 7 7 6 6 5 5 4 4 3 3 2 2 2 3 5 6 5 5 4 3 3 3 2 3 3 1 2 2 3 2 1 2 3 3 3 3 2
7 7 7 6 7 6 5 6 6 6 5 5 5 6 4 3 2 2 1 2 4 4 5 5 4 3 2 2 2 2 2 2 1 1 1 1 3 2 1 3 3 3 2
9 9 8 7 7 6 6 6 6 5 4 5 5 6 4 3 2 2 2 2 2 3 4 4 4 3 2 2 2 2 2 2 1 1 1 1 1 1 2 1 3 3 2
9 8 7 6 6 6 6 6 7 5 5 5 5 4 5 4 4 2 2 1 1 1 2 4 3 3 2 2 2 2 3 2 2 2 2 1 1 0 1 1 2 2 2
9 9 7 6 7 7 7 6 7 5 4 5 5 4 4 5 4 3 3 2 1 1 1 2 2 2 2 2 2 2 2 2 2 2 1 1 1 1 1 1 1 1 2
8 9 9 8 7 8 8 7 6 5 5 5 4 4 4 3 2 3 3 3 2 2 2 2 2 2 2 2 2 2 1 2 2 1 1 1 0 1 1 2 2 0 1
8 9 8 8 7 7 7 8 7 6 5 5 4 4 4 4 3 2 2 2 1 2 2 2 2 1 2 2 3 2 1 1 1 1 1 1 0 1 0 1 2 2 1
6 7 7 7 6 6 6 6 7 6 5 4 4 4 3 4 3 3 2 1 1 1 2 2 2 1 2 2 2 1 1 2 1 1 2 1 1 1 1 1 0 1 2
6 6 6 6 5 5 6 6 5 5 4 4 4 4 3 3 4 3 2 2 1 1 1 2 2 1 1 2 2 1 1 2 1 1 2 1 1 1 1 1 1 1 1
6 6 5 5 4 4 4 5 4 4 4 5 4 4 4 4 4 3 2 2 2 2 2 2 2 2 1 1 2 1 1 1 1 0 1 1 1 2 1 1 1 0 1
4 4 4 4 4 3 3 4 4 4 4 4 4 4 4 4 4 3 2 2 2 2 2 2 2 1 1 1 1 2 2 2 1 1 1 1 1 1 1 1 0 1 0
3 4 3 3 3 3 3 3 3 3 4 4 5 4 4 4 4 3 3 2 3 3 2 2 2 1 1 1 1 2 2 1 1 1 1 1 1 1 1 0 1 0 0
3 3 3 2 3 3 3 3 4 4 4 5 5 5 4 4 3 2 2 2 2 3 3 2 2 1 1 1 2 2 2 2 1 0 1 1 0 0 0 0 1 0 0
4 3 2 1 2 3 4 4 4 4 4 5 5 4 4 3 3 2 2 2 2 2 2 2 2 2 1 1 2 2 2 2 2 1 1 1 1 1 1 1 0 1 1
3 3 3 3 3 3 4 5 5 4 4 4 4 4 4 4 3 3 2 3 2 2 2 1 2 2 2 1 2 3 3 2 2 2 1 1 1 1 0 1 2 1 1
3 3 3 3 2 2 3 3 4 4 4 4 3 4 4 4 3 3 3 3 2 2 2 2 2 2 2 2 2 4 3 2 1 2 3 3 2 1 1 1 1 1 2
4 4 4 4 3 2 3 3 4 3 3 3 4 4 4 4 4 4 3 3 2 2 2 3 2 2 2 2 3 3 2 1 1 2 2 2 3 2 2 2 1 1 2
3 3 3 3 3 3 3 4 4 3 3 3 3 3 4 5 5 4 3 2 2 2 2 2 2 2 3 3 3 3 2 1 1 1 2 2 2 2 2 2 2 1 2
2 3 3 3 3 3 4 4 4 3 3 2 2 2 3 4 4 3 3 3 2 2 1 1 1 2 2 3 4 4 3 3 2 2 2 2 1 1 2 1 2 3 2
1 2 3 2 2 3 5 4 3 3 2 2 1 2 2 3 2 3 2 2 3 2 1 0 1 2 2 2 3 3 4 3 3 3 3 2 2 2 2 2 2 1 1
1 2 3 2 2 3 4 4 3 2 2 2 1 2 2 2 3 3 3 2 2 2 2 1 1 2 2 2 3 3 3 3 2 3 3 3 2 2 2 2 1 1 1
1 1 3 3 2 2 3 3 3 3 3 3 2 2 3 2 2 2 2 3 3 3 2 2 2 2 2 2 2 2 2 2 2 1 2 2 2 1 2 2 1 1 2
1 2 3 3 2 2 2 2 3 4 3 2 2 2 2 2 2 1 1 2 3 4 3 3 3 3 3 4 3 2 2 2 2 1 1 1 0 1 1 1 1 1 1
1 1 2 2 2 2 2 2 3 4 4 2 2 2 2 2 2 2 1 2 0 1 1 1 1 2 3 2 2 1 1 1 2 2 1 1 1 2 2 2 2 1 1
Wind_Direction
188 170 163 159 149 145 145 147 141 148 142 131 122 112 111 102 71 69 78 83 83 85 83 74 67 70 75 72 70 74 59 40 47 61 29 15 29 46 41 48 57 50 50
169 166 165 162 160 162 162 158 156 157 154 152 148 144 140 127 112 74 69 78 87 88 88 81 80 75 76 61 60 71 70 42 47 90 79 20 360 6 22 29 45 37 56
175 173 171 171 156 160 169 165 166 159 155 148 127 106 83 66 57 62 63 61 91 95 92 88 83 81 85 81 73 79 92 79 14 62 115 123 228 313 341 6 21 21 29
170 168 163 162 161 168 161 151 154 150 149 144 139 138 142 149 177 168 130 91 91 99 100 95 92 91 88 82 68 80 83 102 59 9 36 125 157 147 317 330 352 2 20
171 171 169 166 162 158 152 144 132 129 132 135 147 148 144 156 145 123 104 92 78 84 92 97 93 92 86 79 69 66 68 86 104 89 52 56 53 90 140 282 323 344 347
175 173 168 155 146 142 140 135 128 128 133 133 138 145 147 140 128 127 130 119 82 66 73 91 87 90 88 86 89 85 80 82 90 86 83 103 103 155 142 204 281 305 312
174 170 163 155 155 151 147 141 137 137 139 138 140 142 143 144 148 158 156 144 122 100 126 105 105 104 102 99 90 87 79 87 92 99 97 96 126 161 157 152 231 293 305
175 175 174 167 164 160 154 148 145 147 150 151 155 148 136 134 144 152 154 161 176 183 165 129 108 98 89 84 82 84 73 74 86 86 96 81 27 112 139 160 155 360 329
177 175 171 166 164 163 165 160 156 156 162 159 150 140 138 138 139 144 145 157 167 158 129 120 117 100 91 93 93 77 61 76 75 78 86 81 16 45 77 138 155 161 212
164 167 169 169 169 172 169 163 161 167 168 162 159 149 152 148 142 127 127 133 123 112 124 128 126 115 102 96 99 86 68 80 55 72 73 38 15 38 45 88 86 152 173
163 167 166 166 164 163 163 165 165 159 158 160 155 146 151 149 138 136 141 145 135 122 138 141 132 122 131 129 116 124 106 100 59 45 71 23 34 54 39 54 65 79 130
167 162 160 155 151 158 163 167 166 161 166 164 155 156 154 151 147 147 151 139 133 124 133 127 123 118 117 133 141 152 136 139 142 129 84 25 50 46 32 59 67 103 173
151 143 145 151 159 156 158 164 166 167 166 156 151 151 151 151 157 159 158 152 143 124 109 120 127 140 140 132 138 149 150 148 161 164 160 184 110 49 2 28 321 280 327
138 131 139 156 160 160 161 164 161 163 160 150 152 158 167 169 166 161 156 162 154 141 139 143 158 161 154 149 152 148 141 139 146 158 168 181 171 193 207 269 259 245 89
127 132 143 157 163 166 167 170 168 164 160 156 162 177 175 166 155 151 160 163 158 160 160 155 170 177 187 181 148 157 152 153 155 267 255 237 206 205 189 238 219 177 147
155 155 151 148 172 185 182 174 176 178 163 165 177 176 164 159 161 167 162 155 167 169 153 171 183 198 231 199 137 151 157 169 176 217 261 277 321 352 343 334 55 107 159
172 175 180 189 195 199 187 181 183 174 162 169 180 175 168 168 179 179 164 175 183 167 161 179 183 203 229 194 177 178 163 169 188 201 224 263 295 338 281 4 31 12 11
197 198 193 195 192 184 180 174 165 166 175 178 182 184 176 179 182 177 179 181 179 180 187 189 198 211 222 204 196 167 150 156 187 215 210 210 229 230 170 136 47 329 309
203 210 202 186 171 175 177 159 157 168 175 186 192 192 184 179 178 183 189 186 176 185 201 195 192 207 235 204 180 146 150 158 216 243 237 214 213 219 149 138 157 308 310
195 198 192 160 159 172 163 151 159 169 189 201 204 195 185 182 184 189 188 184 176 190 187 203 213 216 229 204 175 151 159 172 239 279 278 252 214 194 155 159 175 225 273
194 181 162 159 176 167 151 152 163 188 212 211 199 184 179 184 183 177 173 164 162 158 163 213 258 245 230 207 192 178 178 191 210 240 265 260 234 187 190 194 203 223 220
161 168 161 167 174 161 153 160 188 205 191 168 161 170 172 179 159 148 159 160 154 150 164 214 285 280 263 228 211 203 198 197 206 234 239 240 226 226 227 231 236 216 146
157 175 166 155 160 168 163 170 196 178 156 146 157 167 155 152 154 159 161 160 162 169 186 200 233 265 275 257 235 225 219 222 228 234 232 228 224 242 252 260 250 192 181
165 144 146 149 170 181 169 175 176 157 146 151 165 153 143 137 135 150 170 174 180 185 193 205 225 243 254 252 245 235 234 238 244 242 250 246 242 237 248 258 252 237 207
169 137 141 156 174 170 161 163 162 152 150 157 169 162 153 149 146 140 178 189 203 194 191 209 209 214 240 245 234 212 218 221 214 162 42 16 324 283 294 289 271 253 244
145 135 134 134 138 138 136 139 149 150 153 159 165 167 158 159 153 141 46 356 42 159 165 185 199 236 247 225 201 227 228 183 131 108 162 227 234 234 235 246 272 271 256
Height
1515 1517 1518 1520 1521 1522 1524 1524 1526 1527 1528 1528 1529 1530 1530 1531 1531 1531 1531 1531 1531 1530 1530 1529 1529 1529 1529 1529 1529 1529 1528 1529 1529 1529 1529 1529 1529 1529 1529 1528 1528 1527 1527
1513 1515 1517 1518 1520 1521 1522 1524 1525 1526 1527 1528 1529 1529 1530 1531 1531 1531 1531 1531 1531 1531 1530 1530 1530 1529 1529 1529 1529 1529 1528 1528 1528 1528 1528 1529 1530 1529 1529 1529 1528 1527 1527
1511 1513 1515 1517 1518 1520 1521 1523 1524 1525 1526 1527 1528 1529 1530 1530 1531 1531 1531 1531 1531 1531 1530 1530 1530 1529 1529 1529 1529 1529 1528 1528 1528 1528 1529 1528 1528 1528 1529 1528 1528 1527 1527
1509 1511 1513 1515 1516 1518 1520 1521 1522 1524 1525 1526 1527 1528 1528 1529 1529 1530 1530 1530 1530 1530 1530 1530 1529 1529 1529 1529 1529 1528 1528 1528 1528 1528 1528 1529 1528 1528 1527 1527 1527 1527 1526
1507 1509 1511 1513 1515 1517 1518 1520 1521 1523 1524 1525 1526 1527 1527 1528 1529 1529 1529 1529 1530 1530 1529 1529 1529 1528 1528 1528 1528 1528 1527 1527 1527 1527 1527 1527 1527 1527 1526 1525 1525 1525 1525
1505 1507 1510 1512 1513 1515 1517 1518 1520 1521 1522 1523 1524 1525 1526 1526 1527 1528 1528 1528 1528 1528 1528 1528 1528 1527 1527 1527 1527 1526 1526 1526 1526 1526 1526 1526 1525 1525 1525 1524 1524 1523 1523
1504 1506 1508 1510 1511 1513 1515 1517 1518 1519 1521 1522 1523 1523 1524 1525 1525 1526 1526 1527 1527 1527 1527 1527 1526 1526 1526 1525 1525 1525 1525 1525 1525 1524 1524 1524 1524 1524 1524 1523 1522 1522 1522
1501 1503 1506 1508 1510 1512 1513 1515 1516 1518 1519 1520 1521 1522 1522 1523 1524 1524 1524 1525 1525 1525 1525 1525 1525 1525 1524 1524 1523 1523 1523 1523 1523 1523 1522 1522 1522 1522 1522 1522 1521 1520 1520
1500 1502 1504 1506 1508 1510 1511 1513 1514 1516 1517 1518 1519 1520 1520 1521 1521 1522 1523 1523 1523 1523 1523 1523 1523 1523 1523 1522 1522 1521 1521 1521 1521 1520 1520 1520 1520 1520 1519 1519 1519 1519 1518
1499 1500 1502 1504 1506 1508 1510 1511 1513 1514 1515 1516 1517 1518 1518 1519 1520 1520 1520 1521 1521 1521 1521 1521 1521 1521 1521 1520 1520 1520 1519 1519 1518 1518 1518 1518 1517 1517 1517 1517 1517 1517 1517
1497 1499 1501 1503 1505 1506 1508 1509 1511 1512 1513 1514 1515 1516 1516 1517 1518 1518 1518 1518 1519 1519 1519 1519 1519 1519 1518 1518 1518 1517 1517 1517 1516 1516 1516 1515 1515 1515 1515 1515 1514 1514 1514
1496 1497 1499 1501 1503 1504 1505 1507 1508 1510 1511 1512 1513 1513 1514 1515 1515 1515 1515 1516 1516 1516 1516 1516 1516 1516 1516 1515 1515 1515 1514 1514 1514 1513 1513 1513 1513 1512 1512 1512 1512 1512 1511
1495 1496 1498 1499 1500 1502 1503 1505 1506 1507 1508 1509 1510 1511 1511 1512 1512 1512 1513 1513 1513 1513 1513 1513 1513 1513 1513 1513 1513 1512 1512 1511 1511 1511 1511 1510 1510 1510 1509 1509 1509 1509 1509
1494 1495 1496 1497 1498 1499 1501 1502 1503 1504 1505 1506 1507 1508 1508 1509 1509 1510 1510 1510 1510 1510 1510 1510 1510 1510 1510 1510 1510 1510 1509 1509 1509 1509 1508 1508 1508 1507 1507 1507 1507 1507 1507
1493 1494 1494 1495 1496 1497 1498 1500 1500 1501 1502 1503 1504 1505 1505 1506 1506 1507 1507 1507 1507 1507 1507 1507 1507 1508 1507 1507 1507 1507 1506 1506 1506 1506 1505 1505 1505 1505 1505 1504 1504 1504 1504
1492 1492 1493 1493 1494 1494 1495 1497 1497 1498 1499 1500 1501 1501 1502 1502 1503 1504 1504 1504 1504 1504 1504 1504 1504 1504 1504 1504 1504 1504 1503 1503 1502 1502 1502 1502 1502 1502 1502 1502 1502 1502 1501
1490 1490 1491 1491 1492 1492 1493 1494 1495 1495 1496 1497 1498 1498 1499 1499 1500 1501 1501 1501 1501 1501 1501 1501 1501 1501 1501 1501 1500 1500 1500 1500 1499 1499 1499 1499 1499 1499 1499 1499 1499 1499 1499
1488 1488 1488 1489 1490 1490 1491 1491 1492 1493 1493 1494 1494 1495 1496 1496 1497 1497 1497 1498 1498 1498 1498 1498 1498 1497 1497 1497 1497 1497 1497 1497 1496 1496 1496 1496 1496 1496 1496 1496 1496 1496 1495
1485 1485 1486 1486 1487 1488 1488 1489 1489 1490 1491 1491 1491 1492 1493 1493 1493 1494 1494 1494 1494 1495 1495 1495 1494 1494 1494 1494 1494 1494 1494 1493 1493 1493 1493 1493 1493 1493 1493 1493 1493 1492 1492
1483 1483 1483 1484 1484 1485 1486 1486 1487 1487 1488 1488 1489 1489 1490 1490 1490 1490 1491 1491 1491 1491 1491 1491 1491 1491 1490 1490 1491 1491 1491 1490 1490 1490 1490 1490 1490 1491 1491 1490 1490 1489 1489
1480 1480 1481 1481 1482 1483 1484 1484 1485 1485 1485 1486 1486 1486 1487 1487 1487 1487 1488 1488 1488 1488 1488 1488 1487 1487 1487 1487 1487 1487 1487 1487 1487 1487 1487 1487 1488 1488 1488 1487 1487 1486 1486
1478 1478 1478 1479 1479 1480 1481 1481 1482 1482 1483 1483 1483 1483 1484 1484 1484 1485 1485 1485 1485 1485 1484 1484 1484 1484 1484 1484 1484 1484 1484 1484 1484 1484 1484 1484 1484 1484 1484 1484 1484 1483 1484
1475 1476 1476 1476 1477 1478 1479 1479 1479 1480 1480 1480 1480 1481 1481 1481 1482 1482 1482 1482 1482 1482 1482 1481 1481 1481 1481 1480 1481 1481 1481 1481 1481 1481 1481 1481 1481 1481 1481 1481 1480 1480 1480
1474 1474 1474 1474 1475 1476 1477 1477 1477 1478 1478 1478 1478 1478 1478 1479 1479 1480 1480 1480 1480 1480 1479 1479 1478 1478 1478 1477 1477 1477 1477 1477 1477 1477 1477 1478 1478 1478 1477 1477 1477 1477 1477
1472 1472 1472 1472 1473 1474 1475 1475 1475 1475 1475 1476 1476 1476 1476 1476 1477 1477 1477 1478 1478 1478 1477 1476 1476 1476 1475 1475 1475 1475 1474 1474 1474 1474 1474 1474 1474 1473 1473 1473 1473 1473 1473
1471 1471 1471 1471 1472 1472 1473 1473 1473 1474 1474 1474 1474 1474 1474 1474 1474 1475 1475 1476 1476 1476 1475 1475 1474 1474 1474 1473 1473 1472 1472 1472 1472 1471 1471 1470 1470 1470 1470 1470 1470 1469 1469